Radiation Dose at Monitoring Post of Fukushima Daini Nuclear Power Station
Date,Time,MP-1(microSv/h),MP-2(microSv/h),MP-3(microSv/h),MP-4(microSv/h),MP-5(microSv/h),MP-6(microSv/h),MP-7(microSv/h),Wind Direction,Wind Velocity(m/s),Rain
2017/01/17,00:00,0.391,0.231,0.404,0.372,0.337,0.193,0.164,northwest,7.1,No
2017/01/17,00:10,0.390,0.233,0.401,0.371,0.336,0.191,0.164,northwest,8.1,No
2017/01/17,00:20,0.390,0.232,0.402,0.372,0.336,0.191,0.164,north-northwest,7.8,No
2017/01/17,00:30,0.389,0.232,0.401,0.373,0.336,0.192,0.164,northwest,7.2,No
2017/01/17,00:40,0.391,0.232,0.403,0.373,0.337,0.193,0.165,northwest,7.3,No
2017/01/17,00:50,0.391,0.232,0.400,0.371,0.337,0.192,0.164,northwest,7.5,No
2017/01/17,01:00,0.390,0.232,0.400,0.372,0.336,0.192,0.164,northwest,7.0,No
2017/01/17,01:10,0.389,0.233,0.402,0.372,0.337,0.192,0.164,northwest,7.3,No
2017/01/17,01:20,0.391,0.232,0.402,0.372,0.336,0.191,0.164,northwest,7.4,No
2017/01/17,01:30,0.391,0.232,0.401,0.372,0.335,0.192,0.165,northwest,6.5,No
2017/01/17,01:40,0.388,0.231,0.401,0.372,0.337,0.192,0.165,northwest,6.4,No
2017/01/17,01:50,0.389,0.233,0.400,0.371,0.336,0.192,0.165,northwest,7.2,No
2017/01/17,02:00,0.390,0.232,0.402,0.373,0.337,0.193,0.164,northwest,7.9,No
2017/01/17,02:10,0.392,0.232,0.402,0.372,0.337,0.193,0.164,north-northwest,7.2,No
2017/01/17,02:20,0.391,0.231,0.401,0.371,0.335,0.191,0.164,north-northwest,8.1,No
2017/01/17,02:30,0.390,0.232,0.400,0.373,0.339,0.191,0.164,northwest,8.1,No
2017/01/17,02:40,0.390,0.233,0.399,0.372,0.335,0.192,0.165,north-northwest,7.7,No
2017/01/17,02:50,0.392,0.231,0.400,0.371,0.337,0.191,0.165,north-northwest,8.3,No
2017/01/17,03:00,0.391,0.231,0.402,0.370,0.337,0.193,0.164,northwest,8.3,No
2017/01/17,03:10,0.389,0.232,0.400,0.372,0.336,0.192,0.164,northwest,9.5,No
2017/01/17,03:20,0.391,0.233,0.401,0.372,0.336,0.191,0.163,north-northwest,8.9,No
2017/01/17,03:30,0.392,0.233,0.401,0.372,0.337,0.192,0.165,northwest,7.7,No
2017/01/17,03:40,0.392,0.232,0.402,0.371,0.335,0.191,0.164,northwest,8.1,No
2017/01/17,03:50,0.389,0.232,0.401,0.372,0.336,0.192,0.164,north-northwest,8.6,No
2017/01/17,04:00,0.391,0.232,0.400,0.373,0.336,0.192,0.164,northwest,7.6,No
2017/01/17,04:10,0.390,0.233,0.401,0.371,0.336,0.192,0.165,north-northwest,8.1,No
2017/01/17,04:20,0.390,0.232,0.402,0.371,0.337,0.191,0.164,north-northwest,8.6,No
2017/01/17,04:30,0.391,0.232,0.402,0.372,0.337,0.192,0.164,northwest,7.3,No
2017/01/17,04:40,0.390,0.234,0.401,0.372,0.337,0.192,0.164,north-northwest,7.2,No
2017/01/17,04:50,0.390,0.231,0.401,0.371,0.337,0.191,0.165,north-northwest,7.3,No
2017/01/17,05:00,0.391,0.232,0.400,0.372,0.336,0.192,0.165,northwest,6.6,No
2017/01/17,05:10,0.392,0.232,0.404,0.373,0.336,0.192,0.164,northwest,7.3,No
2017/01/17,05:20,0.391,0.231,0.401,0.373,0.338,0.190,0.165,northwest,7.0,No
2017/01/17,05:30,0.391,0.232,0.400,0.371,0.336,0.192,0.164,north-northwest,6.8,No
2017/01/17,05:40,0.390,0.232,0.401,0.371,0.336,0.191,0.166,north-northwest,7.3,No
2017/01/17,05:50,0.391,0.233,0.402,0.371,0.337,0.193,0.164,northwest,6.2,No
2017/01/17,06:00,0.391,0.232,0.400,0.372,0.336,0.192,0.165,northwest,6.9,No
2017/01/17,06:10,0.391,0.232,0.401,0.374,0.337,0.191,0.164,northwest,6.9,No
2017/01/17,06:20,0.390,0.233,0.401,0.371,0.337,0.192,0.163,northwest,7.2,No
2017/01/17,06:30,0.388,0.233,0.400,0.370,0.336,0.192,0.165,north-northwest,7.3,No
2017/01/17,06:40,0.391,0.231,0.400,0.370,0.336,0.190,0.164,northwest,7.0,No
2017/01/17,06:50,0.390,0.232,0.401,0.372,0.336,0.191,0.164,north-northwest,6.2,No
2017/01/17,07:00,0.391,0.232,0.400,0.372,0.336,0.191,0.165,northwest,6.7,No
2017/01/17,07:10,0.388,0.233,0.401,0.371,0.336,0.192,0.163,northwest,6.9,No
2017/01/17,07:20,0.389,0.231,0.403,0.371,0.336,0.192,0.162,north-northwest,6.5,No
2017/01/17,07:30,0.391,0.231,0.402,0.371,0.337,0.192,0.165,north-northwest,6.7,No
2017/01/17,07:40,0.391,0.233,0.399,0.373,0.337,0.191,0.164,north-northwest,7.2,No
2017/01/17,07:50,0.390,0.232,0.400,0.371,0.337,0.191,0.164,north-northwest,4.5,No
2017/01/17,08:00,0.391,0.232,0.401,0.370,0.335,0.191,0.163,north-northwest,3.2,No
2017/01/17,08:10,0.392,0.232,0.400,0.371,0.335,0.192,0.163,north-northwest,2.7,No
2017/01/17,08:20,0.392,0.232,0.402,0.370,0.337,0.192,0.164,north-northwest,3.8,No
2017/01/17,08:30,0.390,0.232,0.400,0.370,0.336,0.191,0.165,north-northwest,2.6,No
2017/01/17,08:40,0.389,0.231,0.402,0.369,0.336,0.191,0.164,northwest,3.6,No
2017/01/17,08:50,0.390,0.231,0.401,0.369,0.334,0.190,0.163,north-northwest,5.6,No
2017/01/17,09:00,0.391,0.231,0.402,0.369,0.336,0.190,0.164,north-northwest,5.5,No
2017/01/17,09:10,0.390,0.231,0.400,0.371,0.337,0.191,0.163,north,5.7,No
2017/01/17,09:20,0.390,0.230,0.401,0.370,0.337,0.192,0.164,northwest,2.2,No
2017/01/17,09:30,0.391,0.232,0.401,0.370,0.336,0.191,0.163,north-northwest,5.6,No
2017/01/17,09:40,0.390,0.231,0.401,0.370,0.336,0.190,0.163,north-northwest,4.8,No
2017/01/17,09:50,0.389,0.231,0.400,0.370,0.336,0.191,0.163,north,7.0,No
2017/01/17,10:00,0.390,0.231,0.401,0.370,0.336,0.191,0.164,north,4.7,No
2017/01/17,10:10,0.389,0.231,0.403,0.371,0.337,0.190,0.164,north-northwest,4.2,No
2017/01/17,10:20,0.387,0.231,0.400,0.370,0.336,0.190,0.165,north,4.2,No
2017/01/17,10:30,0.387,0.231,0.400,0.370,0.336,0.191,0.163,north,5.1,No
2017/01/17,10:40,0.389,0.231,0.402,0.371,0.336,0.190,0.165,north,6.1,No
2017/01/17,10:50,0.388,0.230,0.399,0.371,0.334,0.188,0.164,north-northwest,5.3,No
2017/01/17,11:00,0.387,0.231,0.400,0.370,0.335,0.189,0.164,north-northwest,5.0,No
2017/01/17,11:10,0.390,0.231,0.403,0.371,0.336,0.190,0.165,north,5.0,No
2017/01/17,11:20,0.390,0.230,0.401,0.368,0.337,0.192,0.165,north-northwest,5.6,No
2017/01/17,11:30,0.391,0.231,0.400,0.371,0.335,0.191,0.164,north-northwest,5.0,No
2017/01/17,11:40,0.388,0.231,0.401,0.371,0.336,0.191,0.164,north-northwest,5.6,No
2017/01/17,11:50,0.388,0.230,0.400,0.371,0.336,0.191,0.163,north,6.0,No
2017/01/17,12:00,0.389,0.231,0.398,0.374,0.338,0.192,0.164,north-northwest,3.2,No
2017/01/17,12:10,0.390,0.231,0.401,0.370,0.337,0.192,0.164,north,6.2,No
2017/01/17,12:20,0.390,0.230,0.400,0.373,0.335,0.192,0.163,north-northwest,5.9,No
2017/01/17,12:30,0.389,0.233,0.400,0.368,0.337,0.192,0.165,north-northwest,5.3,No
2017/01/17,12:40,0.391,0.231,0.399,0.372,0.336,0.192,0.164,northwest,3.9,No
2017/01/17,12:50,0.390,0.231,0.398,0.369,0.338,0.192,0.165,north-northwest,4.7,No
2017/01/17,13:00,0.389,0.233,0.400,0.371,0.335,0.192,0.165,north-northwest,5.7,No
2017/01/17,13:10,0.389,0.232,0.399,0.370,0.336,0.191,0.164,north,5.3,No
2017/01/17,13:20,0.392,0.232,0.402,0.370,0.338,0.192,0.165,north,6.4,No
2017/01/17,13:30,0.389,0.232,0.400,0.371,0.337,0.193,0.164,north,5.0,No
2017/01/17,13:40,0.390,0.233,0.399,0.367,0.336,0.192,0.165,north,3.7,No
2017/01/17,13:50,0.393,0.231,0.402,0.373,0.337,0.192,0.164,north,4.1,No
2017/01/17,14:00,0.391,0.233,0.400,0.370,0.337,0.191,0.164,north,3.7,No
2017/01/17,14:10,0.390,0.233,0.400,0.371,0.339,0.192,0.163,north,5.5,No
2017/01/17,14:20,0.392,0.230,0.402,0.371,0.337,0.191,0.164,north,4.2,No
2017/01/17,14:30,0.389,0.232,0.400,0.371,0.340,0.193,0.165,north,4.0,No
2017/01/17,14:40,0.389,0.231,0.400,0.374,0.338,0.192,0.165,northwest,2.0,No
2017/01/17,14:50,0.390,0.231,0.400,0.373,0.337,0.192,0.166,north-northwest,2.6,No
2017/01/17,15:00,0.392,0.233,0.399,0.372,0.338,0.192,0.164,north-northwest,2.0,No
2017/01/17,15:10,0.391,0.232,0.402,0.372,0.340,0.191,0.165,north,0.9,No
2017/01/17,15:20,0.391,0.232,0.402,0.372,0.339,0.193,0.165,north,3.3,No
2017/01/17,15:30,0.392,0.232,0.400,0.372,0.336,0.192,0.165,north,2.2,No
2017/01/17,15:40,0.393,0.232,0.401,0.372,0.340,0.192,0.163,north,1.4,No
2017/01/17,15:50,0.391,0.232,0.403,0.372,0.336,0.192,0.165,north,2.9,No
2017/01/17,16:00,0.392,0.232,0.400,0.372,0.337,0.193,0.164,north,1.6,No
2017/01/17,16:10,0.393,0.232,0.401,0.373,0.337,0.191,0.165,north,1.2,No
2017/01/17,16:20,0.391,0.232,0.401,0.372,0.338,0.193,0.165,north-northeast,1.2,No
2017/01/17,16:30,0.390,0.232,0.401,0.371,0.338,0.191,0.164,north,1.6,No
2017/01/17,16:40,0.393,0.232,0.400,0.373,0.337,0.193,0.165,north-northwest,2.2,No
2017/01/17,16:50,0.393,0.232,0.402,0.372,0.338,0.190,0.165,north-northwest,4.8,No
2017/01/17,17:00,0.391,0.232,0.401,0.371,0.337,0.192,0.166,north-northwest,4.8,No
2017/01/17,17:10,0.393,0.232,0.401,0.372,0.339,0.192,0.165,northwest,3.0,No
2017/01/17,17:20,0.392,0.231,0.402,0.372,0.336,0.191,0.165,north-northwest,2.5,No
2017/01/17,17:30,0.392,0.233,0.403,0.372,0.338,0.192,0.165,north,3.0,No
2017/01/17,17:40,0.391,0.233,0.400,0.372,0.337,0.192,0.166,north-northwest,3.6,No
2017/01/17,17:50,0.392,0.231,0.401,0.371,0.337,0.193,0.164,north-northwest,3.4,No
2017/01/17,18:00,0.392,0.231,0.401,0.373,0.339,0.192,0.165,north,2.4,No
2017/01/17,18:10,0.390,0.233,0.403,0.372,0.338,0.193,0.164,north,2.6,No
2017/01/17,18:20,0.391,0.231,0.402,0.372,0.338,0.192,0.164,north,2.2,No
2017/01/17,18:30,0.391,0.232,0.400,0.373,0.337,0.193,0.165,north,2.1,No
2017/01/17,18:40,0.393,0.231,0.401,0.371,0.338,0.192,0.164,north-northwest,1.8,No
2017/01/17,18:50,0.392,0.233,0.402,0.372,0.337,0.192,0.164,north-northwest,3.0,No
2017/01/17,19:00,0.392,0.232,0.401,0.374,0.336,0.192,0.164,north,1.9,No
2017/01/17,19:10,0.393,0.234,0.401,0.374,0.337,0.193,0.164,north,4.0,No
2017/01/17,19:20,0.392,0.234,0.402,0.372,0.338,0.191,0.164,north,4.7,No
2017/01/17,19:30,0.391,0.234,0.402,0.373,0.338,0.192,0.165,north-northwest,4.5,No
2017/01/17,19:40,0.392,0.233,0.402,0.372,0.335,0.192,0.166,north-northwest,3.9,No
2017/01/17,19:50,0.390,0.233,0.402,0.373,0.337,0.192,0.165,northwest,2.1,No
2017/01/17,20:00,0.392,0.233,0.401,0.371,0.339,0.192,0.165,northwest,1.7,No
2017/01/17,20:10,0.393,0.233,0.402,0.371,0.338,0.192,0.164,north-northwest,1.1,No
2017/01/17,20:20,0.392,0.232,0.401,0.373,0.337,0.192,0.165,north-northwest,1.7,No
2017/01/17,20:30,0.391,0.231,0.402,0.372,0.337,0.192,0.165,north-northwest,0.8,No
2017/01/17,20:40,0.392,0.232,0.402,0.373,0.338,0.193,0.165,north,0.6,No
2017/01/17,20:50,0.393,0.233,0.402,0.371,0.336,0.192,0.166,west-northwest,1.0,No
2017/01/17,21:00,0.392,0.233,0.402,0.371,0.338,0.193,0.165,west-northwest,1.8,No
2017/01/17,21:10,0.394,0.232,0.403,0.373,0.337,0.193,0.165,west-northwest,2.8,No
2017/01/17,21:20,0.392,0.232,0.402,0.373,0.336,0.193,0.165,west-northwest,3.4,No
2017/01/17,21:30,0.392,0.232,0.402,0.373,0.335,0.192,0.165,west-northwest,3.4,No
2017/01/17,21:40,0.394,0.232,0.403,0.373,0.337,0.194,0.165,west-northwest,3.4,No
2017/01/17,21:50,0.393,0.231,0.403,0.373,0.337,0.193,0.165,west-northwest,3.7,No
2017/01/17,22:00,0.391,0.232,0.403,0.372,0.338,0.193,0.164,west-northwest,3.7,No
2017/01/17,22:10,0.392,0.233,0.403,0.372,0.337,0.192,0.165,west-northwest,3.4,No
2017/01/17,22:20,0.392,0.233,0.402,0.372,0.337,0.192,0.164,northwest,3.8,No
2017/01/17,22:30,0.393,0.232,0.402,0.372,0.338,0.191,0.165,west-northwest,3.7,No
2017/01/17,22:40,0.392,0.233,0.402,0.372,0.337,0.192,0.164,west,3.3,No
2017/01/17,22:50,0.392,0.230,0.401,0.372,0.337,0.193,0.165,west,2.3,No
2017/01/17,23:00,0.392,0.233,0.402,0.372,0.337,0.192,0.165,west,3.4,No
2017/01/17,23:10,0.393,0.230,0.402,0.372,0.337,0.193,0.165,west-northwest,3.9,No
2017/01/17,23:20,0.392,0.234,0.402,0.373,0.337,0.192,0.164,northwest,2.5,No
2017/01/17,23:30,0.391,0.232,0.401,0.372,0.338,0.193,0.164,north-northwest,2.5,No
2017/01/17,23:40,0.391,0.232,0.402,0.373,0.338,0.191,0.164,north,3.9,No
2017/01/17,23:50,0.392,0.231,0.401,0.371,0.337,0.193,0.165,north,2.5,No
